User: anonymous   Login
Location: Unspecified
(0.0000°N, 0.0000°E)
Time: 06:57:08
(UTC+02:00)
Language:

ATLAS 3B CENTAUR R/B - Orbit

View from above orbital plane
View from above orbital plane
View from above satellite
View from above satellite

Ground track
Ground track

The orbit data is extracted from the following two-line orbital elements,

1 28118U 03057B   16236.79840448  .00052138  00000-0  79480-3 0  9997
2 28118  28.1193 172.2689 3242111  92.6963 304.2173  8.99441680262357
Epoch (UTC): 23 August 2016 19:09:42
Eccentricity: 0.3242111
inclination: 28.1193°
perigee height: 222 km
apogee height: 6555 km
right ascension of ascending node: 172.2689°
argument of perigee: 92.6963°
revolutions per day: 8.99441680
mean anomaly at epoch: 304.2173°
orbit number at epoch: 26235

The dashed part of the orbit path shows where the satellite is in the earth's shadow,  

DLR